CAPE
337 1444 1375 1835 1850 1811 1742 1665 1654 1859 2171 2391 2444 2447 2412 2376 2267 2209 2291 2221 1772 1310 1008 1142 915 751 652 556 455 425 487 793 1275 1693 1387 952 902 784 854 773 625 387 551
506 1497 1618 1787 1827 1793 1752 1729 1771 1884 2113 2266 2286 2286 2264 2251 2182 2154 2072 1926 1372 1194 1062 978 835 715 621 532 465 368 297 391 575 1281 1712 948 841 903 905 831 820 603 537
904 1593 1805 1675 1788 1825 1800 1835 1969 2077 2133 2154 2202 2167 2161 2198 2171 2063 1919 1814 1527 996 1048 921 814 716 623 511 428 307 238 257 256 620 1316 856 762 1023 921 922 797 626 543
1091 1499 1559 1582 1725 1816 1774 1875 2001 2107 2155 2135 2136 2141 2116 2076 2051 2058 1943 1760 1702 1404 1069 1001 843 679 520 511 404 252 201 337 280 470 1045 955 765 933 884 809 657 606 480
1062 1361 1620 1568 1677 1823 1828 1961 2010 2025 1997 1998 2008 2089 2072 2006 1957 1984 1849 1767 1763 1691 1085 1011 667 508 494 419 209 96 201 538 511 401 1049 1167 1037 1072 808 705 623 559 488
937 1219 1412 1489 1685 1828 1927 2056 2080 1989 1845 1794 1821 1953 2052 2071 2050 1952 1817 1937 2105 2109 1296 858 625 502 330 161 41 6 370 509 593 1319 1187 1164 1213 1199 727 576 593 527 486
802 1129 1670 1419 1669 1851 2037 2130 1929 1820 1783 1823 1931 1932 2027 2107 2036 1909 1800 2072 2084 1934 1440 963 672 295 115 24 0 0 259 416 1384 1258 1213 1047 953 1019 906 679 596 562 426
854 1194 1571 1432 1587 1755 1931 1848 1576 1533 1596 1774 1902 1906 1999 1908 1663 1611 1627 1716 1861 1538 1127 942 451 79 3 0 0 38 59 331 969 1041 961 1025 1108 1178 1138 880 691 649 493
995 1095 1501 1724 1688 1562 1660 1467 1295 1292 1389 1545 1669 1712 1642 1380 1287 1442 1487 1573 1365 976 924 547 128 1 0 0 0 0 0 124 1190 1192 978 1066 927 925 823 989 881 756 626
1034 1010 1230 1530 1713 1859 1735 1182 1068 1059 1126 1285 1386 1452 1183 996 964 1017 1088 1139 1044 902 588 156 2 0 0 0 0 0 0 203 1098 1032 965 864 847 841 573 529 608 832 764
961 1064 1040 1205 1472 1665 1720 1430 867 814 809 1050 1336 1211 906 1342 1156 982 634 647 591 382 192 4 0 0 0 0 0 0 47 814 858 776 551 375 802 439 445 477 545 410 554
816 921 1104 1033 1232 1399 1200 1526 1450 1268 1152 1407 1774 1759 1550 1262 1076 702 427 224 188 61 2 0 0 0 0 0 0 0 292 404 323 277 188 40 438 211 81 168 349 642 515
1094 1031 868 840 942 1326 1212 1390 1377 1339 1398 1588 1762 1637 1217 887 700 488 402 107 12 0 0 0 0 0 0 0 1 6 24 23 46 20 2 1 78 47 85 61 131 457 605
1169 1025 991 922 757 1201 1422 1272 1301 1284 1402 1381 1429 1149 819 591 423 119 35 0 0 0 0 0 0 0 0 0 3 4 1 0 0 0 0 0 0 95 41 22 29 59 55
1787 1583 1072 776 629 762 1299 1191 1214 1332 1253 968 852 748 680 549 291 10 0 0 0 0 0 0 0 0 0 0 1 0 0 0 0 0 0 0 0 94 43 40 47 37 24
1811 1768 1180 868 455 544 723 1098 1047 1330 1347 1050 680 518 489 425 281 6 0 0 0 0 0 0 0 0 0 0 0 0 0 0 0 0 3 6 16 49 41 27 30 37 26
1850 1632 1493 971 547 385 500 839 1077 1106 1082 1070 665 184 210 197 83 0 0 0 0 0 0 0 0 0 0 0 0 0 0 0 0 0 2 3 0 0 0 1 0 0 1
1373 1480 1484 1024 720 384 380 613 816 905 899 907 516 0 1 1 1 0 0 0 0 0 0 0 0 0 0 0 0 0 0 0 0 0 0 1 0 0 0 0 0 1 12
1530 1580 1511 1148 699 500 289 520 676 733 716 742 394 25 0 1 1 0 0 0 0 0 0 0 0 0 0 0 0 0 0 0 0 0 0 0 0 0 0 0 0 0 4
132 971 1272 1354 1014 928 536 214 163 196 289 204 24 20 1 1 1 0 0 0 0 0 0 0 0 0 0 0 0 0 0 0 0 0 0 0 0 0 0 0 0 0 0
0 0 0 320 815 1273 745 141 3 1 2 1 52 4 1 1 2 0 0 0 0 0 0 0 0 0 0 0 0 0 0 0 0 0 1 1 0 0 0 0 0 0 0
0 0 0 0 0 486 958 757 193 18 1 0 0 5 9 4 2 0 0 0 0 0 0 0 0 0 0 0 0 0 0 0 0 0 2 1 0 0 0 0 0 0 0
0 0 0 0 0 0 475 944 0 0 0 0 1 1 3 4 5 1 0 0 0 0 0 0 0 0 0 0 0 0 0 0 0 0 7 6 3 0 0 0 0 0 0
0 0 0 0 0 7 508 959 0 18 0 0 0 0 0 1 4 3 2 0 0 0 0 0 0 0 0 0 0 0 0 0 0 0 2 4 7 0 0 0 0 0 0
0 0 0 0 0 0 0 484 1066 455 333 214 0 0 0 0 0 0 1 0 0 0 0 0 0 0 0 0 0 0 0 0 0 0 0 2 2 2 0 0 0 0 0
0 0 0 0 0 0 0 0 0 2 24 1 0 1 0 1 1 0 0 0 0 0 0 0 0 0 0 0 0 0 0 0 0 0 0 2 1 0 0 0 0 0 0
CIN
-644 -369 -382 -266 -239 -213 -213 -204 -168 -134 -87 -49 -35 -23 -20 -16 -12 -3 -0 -0 -0 -3 -25 -13 -38 -57 -72 -83 -87 -95 -93 -45 -12 -0 -1 -9 -11 -15 -4 -5 -24 -61 -36
-627 -377 -357 -294 -252 -216 -199 -193 -171 -131 -79 -53 -45 -36 -32 -20 -6 -0 -0 -1 -11 -6 -18 -24 -49 -67 -79 -92 -95 -115 -130 -106 -60 -7 -0 -8 -13 -7 -3 -4 -10 -35 -38
-537 -344 -281 -310 -269 -216 -179 -166 -145 -117 -82 -58 -51 -38 -32 -14 -4 -0 -1 -1 -1 -22 -21 -33 -44 -69 -86 -99 -112 -137 -155 -149 -147 -63 -5 -1 -5 -1 -2 -0 -9 -36 -61
-500 -339 -310 -322 -283 -230 -200 -163 -128 -106 -85 -71 -52 -36 -27 -21 -10 -0 -0 -1 -0 -0 -15 -18 -35 -65 -102 -105 -120 -154 -187 -145 -149 -90 -1 -3 -5 -5 -7 -13 -28 -43 -72
-483 -377 -296 -308 -288 -219 -192 -145 -140 -129 -120 -88 -64 -37 -30 -19 -9 -0 -2 -1 -0 -0 -12 -11 -46 -82 -92 -117 -174 -251 -195 -104 -108 -103 -1 -4 -0 -1 -9 -16 -23 -43 -59
-485 -398 -340 -305 -252 -196 -154 -110 -109 -135 -153 -117 -91 -50 -28 -16 -1 -2 -1 -1 -0 -0 -2 -18 -37 -76 -139 -222 -319 -410 -136 -115 -82 -2 -4 -15 -0 -0 -14 -27 -17 -21 -39
-495 -402 -269 -289 -233 -184 -141 -102 -135 -159 -173 -131 -68 -49 -21 -8 -5 -5 -3 -1 -1 -0 -0 -12 -41 -136 -226 -344 -0 -0 -158 -115 -0 -0 -1 -2 -1 -11 -3 -10 -6 -5 -33
-457 -372 -285 -287 -243 -187 -130 -132 -168 -186 -189 -126 -62 -38 -19 -15 -26 -15 -7 -3 -1 -2 -20 -33 -117 -239 -165 -0 -0 -271 -253 -106 -6 -3 -2 -0 -3 -0 -0 -0 -1 -1 -5
-404 -346 -243 -174 -195 -223 -169 -182 -212 -213 -200 -137 -86 -51 -48 -77 -68 -31 -12 -2 -13 -37 -40 -133 -251 -63 -0 -0 -0 -0 -0 -188 -0 -0 -0 -0 -4 -4 -2 -0 -0 -1 -1
-372 -348 -282 -187 -131 -102 -116 -238 -272 -278 -250 -190 -131 -89 -126 -147 -132 -96 -55 -29 -35 -39 -103 -227 -49 -0 -0 -0 -0 -0 -0 -132 -0 -0 -0 -0 -6 -2 -0 -1 -2 -2 -1
-371 -339 -317 -261 -183 -121 -113 -169 -300 -330 -333 -247 -127 -129 -196 -68 -82 -106 -170 -131 -131 -157 -213 -150 -0 -0 -0 -0 -0 -0 -117 -0 -0 -0 -1 -23 -6 -2 -0 -0 -2 -9 -6
-399 -338 -261 -267 -211 -165 -198 -138 -132 -166 -190 -134 -59 -38 -48 -76 -94 -159 -215 -280 -284 -338 -178 -0 -0 -0 -0 -0 -0 -0 -62 -37 -45 -35 -54 -127 -1 -20 -69 -25 -5 -4 -6
-364 -360 -371 -346 -287 -175 -173 -138 -134 -125 -95 -72 -42 -53 -106 -160 -181 -218 -228 -313 -371 -0 -0 -0 -0 -0 -0 -0 -0 -0 -116 -102 -89 -137 -26 -21 -71 -131 -107 -98 -62 -4 -4
-334 -363 -366 -360 -377 -255 -162 -155 -140 -129 -102 -88 -66 -96 -158 -207 -237 -335 -357 -0 -0 -0 -0 -0 -0 -0 -0 -0 -0 -0 -0 -0 -0 -0 -0 -0 -0 -93 -47 -1 -0 -81 -71
-251 -276 -326 -355 -397 -348 -213 -186 -168 -126 -116 -178 -206 -226 -220 -232 -278 -417 -0 -0 -0 -0 -0 -0 -0 -0 -0 -0 -0 -0 -0 -0 -0 -0 -0 -0 -0 -59 -0 -0 -0 -0 -5
-232 -204 -253 -298 -356 -318 -286 -209 -198 -117 -104 -149 -234 -297 -302 -292 -314 -510 -0 -0 -0 -0 -0 -0 -0 -0 -0 -0 -0 -0 -0 -0 -0 -0 -0 -5 -31 -8 -0 -0 -0 -0 -2
-115 -154 -192 -275 -339 -352 -298 -188 -130 -106 -99 -120 -207 -351 -319 -314 -346 -39 -0 -0 -0 -0 -0 -0 -0 -0 -0 -0 -0 -0 -0 -0 -0 -0 -0 -0 -0 -0 -0 -14 -0 -0 -0
-180 -153 -133 -192 -262 -392 -370 -264 -194 -174 -153 -114 -183 -0 -0 -0 -0 -0 -0 -0 -0 -0 -0 -0 -0 -0 -0 -0 -0 -0 -0 -0 -0 -0 -0 -0 -0 -0 -0 -0 -0 -0 -0
-164 -136 -138 -189 -256 -308 -395 -291 -250 -207 -196 -175 -215 -173 -0 -0 -0 -0 -0 -0 -0 -0 -0 -0 -0 -0 -0 -0 -0 -0 -0 -0 -0 -0 -0 -0 -0 -0 -0 -0 -0 -2 -1
-265 -215 -168 -133 -183 -202 -273 -368 -382 -364 -310 -329 -469 -466 -0 -0 -0 -0 -0 -0 -0 -0 -0 -0 -0 -0 -0 -0 -0 -0 -0 -0 -0 -0 -0 -0 -0 -0 -0 -0 -0 -0 -0
-0 -0 -0 -318 -213 -136 -222 -381 -219 -0 -0 -2 -432 -28 -0 -0 -0 -0 -0 -0 -0 -0 -0 -0 -0 -0 -0 -0 -0 -0 -0 -0 -0 -0 -0 -0 -0 -0 -0 -0 -0 -0 -0
-0 -0 -0 -0 -0 -228 -143 -159 -283 -429 -343 -0 -0 -282 -231 -0 -0 -0 -0 -0 -0 -0 -0 -0 -0 -0 -0 -0 -0 -0 -0 -0 -0 -0 -0 -0 -0 -0 -0 -0 -0 -0 -0
-0 -0 -0 -0 -0 -0 -220 -93 -0 -0 -0 -0 -0 -0 -0 -0 -0 -0 -0 -0 -0 -0 -0 -0 -0 -0 -0 -0 -0 -0 -0 -0 -0 -0 -0 -0 -0 -0 -0 -0 -0 -0 -0
-0 -0 -0 -0 -0 -36 -91 -24 -0 -190 -0 -0 -0 -0 -0 -0 -0 -0 -0 -0 -0 -0 -0 -0 -0 -0 -0 -0 -0 -0 -0 -0 -0 -0 -0 -0 -0 -0 -0 -0 -0 -0 -0
-0 -0 -0 -0 -0 -0 -0 -37 -2 -33 -76 -103 -0 -0 -0 -0 -0 -0 -0 -0 -0 -0 -0 -0 -0 -0 -0 -0 -0 -0 -0 -0 -0 -0 -0 -0 -0 -0 -0 -0 -0 -0 -0
-0 -0 -0 -0 -0 -0 -0 -0 -0 -6 -74 -0 -0 -0 -0 -0 -0 -0 -0 -0 -0 -0 -0 -0 -0 -0 -0 -0 -0 -0 -0 -0 -0 -0 -0 -0 -0 -0 -0 -0 -0 -0 -0
Wind_Speed
13 18 21 19 18 15 12 12 12 14 15 16 17 17 17 17 16 16 15 14 13 13 13 12 13 13 13 12 10 9 8 7 7 7 9 10 11 10 9 8 5 11 11
17 20 20 20 19 17 14 13 13 13 14 15 16 15 15 15 15 14 14 14 14 13 13 12 12 13 12 11 10 8 7 6 6 6 8 10 10 10 9 8 5 11 11
17 17 19 20 20 18 17 15 14 15 15 15 15 14 15 15 14 13 13 13 13 14 13 12 12 12 12 10 8 7 6 5 4 6 6 6 8 9 9 7 8 9 10
15 14 16 18 20 19 18 17 16 16 15 14 14 14 14 14 14 14 13 12 13 13 13 12 12 12 11 9 6 5 4 4 5 7 7 7 7 8 8 7 7 8 9
16 15 15 16 19 18 17 17 17 17 16 14 13 13 13 13 13 13 12 11 12 14 13 11 11 12 10 7 5 4 3 3 8 8 8 6 5 7 7 6 6 7 7
14 13 14 14 16 17 16 15 15 16 16 14 13 14 14 14 13 12 11 11 11 12 13 10 11 11 9 6 6 5 5 7 9 9 8 7 5 8 6 5 5 5 7
14 12 14 11 14 17 17 16 16 16 16 15 14 14 13 13 12 11 10 10 11 13 12 11 11 10 8 6 6 6 8 7 8 8 7 6 6 7 6 5 4 4 8
12 12 13 14 14 14 14 14 14 14 14 14 13 12 12 11 11 10 9 9 10 12 11 11 11 9 8 6 7 9 9 7 7 7 6 6 7 6 5 5 4 4 6
10 10 10 11 13 12 12 12 12 12 13 12 12 11 11 11 10 9 8 8 10 10 9 11 11 8 8 8 8 10 10 7 8 6 7 5 7 7 5 5 4 4 5
10 11 11 10 10 10 11 11 12 12 12 12 11 11 10 10 9 8 8 8 8 8 8 10 11 9 8 8 10 10 10 9 9 9 6 6 9 10 8 5 4 5 5
8 11 12 11 11 10 11 10 9 11 12 12 11 11 10 8 9 10 6 8 8 6 7 9 9 8 9 9 9 9 8 6 8 6 5 9 12 10 9 8 7 1 6
11 10 10 10 10 11 9 10 10 9 9 10 11 12 8 8 7 6 6 7 8 8 8 9 7 7 6 5 6 7 5 8 6 6 5 9 9 11 10 13 12 9 7
13 11 14 12 11 12 9 8 6 6 6 7 11 10 8 6 6 5 5 5 5 7 6 6 7 3 4 4 5 4 6 5 4 4 6 7 7 11 14 17 18 16 13
15 15 15 16 10 13 9 9 9 8 8 7 8 9 7 5 6 6 5 5 5 4 5 5 4 6 6 5 6 6 5 4 3 3 5 4 3 13 15 17 17 18 19
16 14 14 14 10 13 13 9 9 10 9 10 9 10 9 8 7 7 6 5 5 4 4 4 4 6 7 7 6 6 6 5 5 3 3 8 1 14 16 16 18 18 18
14 13 11 11 8 10 11 12 9 9 10 10 10 10 12 9 9 9 8 7 6 6 6 6 6 7 7 7 7 7 6 6 6 6 5 9 12 12 18 15 15 16 16
10 10 12 10 9 9 12 11 9 9 9 9 9 10 10 10 10 10 8 8 8 7 8 8 8 8 8 7 8 7 6 6 6 7 7 8 10 16 18 17 17 14 11
12 11 11 10 10 11 10 9 10 10 10 9 8 6 9 11 11 10 9 8 9 9 9 8 9 9 8 8 8 7 6 6 7 7 6 7 8 8 12 19 16 9 11
10 12 12 12 11 11 9 9 12 12 11 10 8 7 8 10 12 11 10 9 12 10 10 10 10 11 10 9 8 7 6 6 7 7 8 8 8 7 8 18 15 11 11
8 4 8 9 12 10 8 7 7 8 10 9 8 8 10 10 13 11 9 9 10 9 10 11 13 10 11 11 10 8 6 5 4 5 7 7 7 8 8 10 7 8 10
12 9 7 4 8 9 6 5 5 6 6 8 10 13 12 11 14 14 10 10 10 10 10 12 11 14 11 12 11 7 5 4 5 4 5 6 8 8 9 8 5 5 6
11 10 9 7 5 9 10 8 5 5 6 7 8 11 13 14 15 12 13 12 13 10 12 14 14 12 8 13 9 9 6 3 3 3 4 5 7 7 8 7 7 6 5
14 13 12 11 11 7 9 4 2 3 2 1 4 7 11 15 16 16 15 13 13 12 11 14 15 18 11 13 13 6 6 6 9 4 5 5 6 6 7 7 7 7 6
11 11 12 13 13 11 5 6 7 7 7 8 9 8 10 15 14 16 16 15 14 12 13 14 13 14 12 14 10 3 1 9 7 7 5 6 6 6 6 5 7 7 6
8 9 9 11 11 11 10 8 6 9 8 6 4 7 9 9 12 13 15 16 15 11 13 14 15 15 12 12 12 8 5 3 5 5 8 7 4 5 7 6 6 5 7
5 6 7 9 9 10 10 9 8 9 10 6 7 7 7 6 7 10 11 12 13 12 13 12 13 16 13 12 12 10 9 8 9 5 4 11 8 5 6 6 7 7 6
Wind_Direction
158 152 154 147 145 144 134 125 120 120 123 124 125 129 130 129 126 127 129 128 125 127 130 124 119 114 110 105 101 98 102 101 95 101 111 109 107 102 99 91 103 81 74
150 156 152 148 142 142 139 135 127 122 121 122 124 126 126 125 126 129 127 125 132 134 133 130 123 116 110 108 106 105 106 104 108 107 121 111 108 107 101 98 67 86 80
150 152 151 144 140 143 144 141 136 131 128 128 128 130 129 129 129 127 128 129 137 139 138 132 125 118 112 107 106 108 109 105 119 132 120 111 107 111 106 101 94 87 84
146 152 151 145 143 145 145 145 144 139 135 134 134 134 134 136 136 138 138 139 139 139 140 135 125 115 111 108 106 97 98 126 154 156 149 125 113 112 109 100 95 87 89
152 157 150 147 143 145 147 148 147 144 141 141 141 141 141 141 141 145 141 141 148 148 139 134 122 114 110 106 97 86 80 98 149 177 137 131 116 107 105 99 110 96 62
154 155 147 146 143 146 147 148 147 146 142 145 148 150 149 150 150 150 150 157 165 144 134 135 119 115 115 122 110 88 89 98 156 137 133 122 117 115 112 103 88 76 74
156 156 157 146 147 152 154 155 153 152 147 147 151 153 155 153 151 155 153 147 143 135 139 133 118 121 128 127 105 100 96 96 127 123 128 124 117 128 119 110 91 74 75
160 161 160 158 154 155 158 156 156 156 147 145 149 154 154 148 151 150 150 146 136 134 140 128 119 132 128 119 106 111 101 108 127 122 122 109 103 116 120 123 105 74 75
158 160 165 173 168 157 158 158 159 157 149 150 153 155 151 148 148 147 143 135 129 140 146 127 125 132 130 123 109 113 113 106 125 124 121 110 89 92 94 87 138 111 93
165 169 172 179 182 180 178 170 170 159 157 158 156 155 155 147 147 147 145 140 136 144 145 129 131 135 130 125 118 117 116 130 129 130 120 110 106 93 83 80 102 133 134
182 187 185 185 189 187 186 183 171 164 165 158 160 158 152 167 167 164 145 146 139 143 131 125 130 131 116 121 123 125 155 140 134 129 116 110 98 95 82 65 41 5 142
197 202 202 197 202 197 194 187 191 187 185 181 176 171 172 165 168 164 157 149 139 135 124 119 120 113 153 146 134 140 145 141 143 141 115 91 112 103 91 70 49 33 170
193 194 200 201 206 206 202 193 193 191 190 186 181 175 167 162 163 168 164 167 165 151 156 149 143 157 159 158 153 144 133 143 130 113 89 88 116 118 103 86 65 59 73
204 207 201 203 193 204 201 202 197 196 188 183 182 174 169 171 174 170 180 169 175 175 159 160 154 145 141 132 133 124 118 116 113 103 87 36 52 120 102 84 79 72 74
221 215 209 210 204 206 207 203 200 202 195 184 181 182 182 184 182 176 174 175 179 173 168 156 147 149 137 133 126 123 114 103 95 89 84 25 207 125 109 100 88 77 75
227 229 217 216 222 224 212 207 205 208 202 194 191 190 191 189 186 183 174 178 177 180 160 155 151 146 137 138 127 128 127 119 106 100 90 61 63 94 91 92 88 79 71
248 229 210 194 191 207 212 216 217 216 209 210 204 192 200 200 198 191 183 178 173 170 153 146 141 140 140 138 131 128 127 120 117 107 101 92 74 66 85 88 77 64 66
234 230 221 211 200 200 203 206 214 212 208 215 214 181 196 207 202 197 192 189 174 166 164 162 159 152 152 154 147 143 138 131 124 117 110 116 107 96 82 82 72 73 88
245 237 232 219 209 205 210 209 213 216 214 215 217 202 193 210 212 210 201 187 177 176 173 167 167 163 158 155 147 139 138 136 139 134 125 116 107 123 112 86 75 55 80
35 291 255 241 228 215 203 205 215 217 219 213 204 209 196 201 208 213 215 195 186 184 181 176 167 170 165 156 144 134 131 127 134 138 131 124 116 113 112 108 119 81 64
49 50 37 292 240 231 210 199 208 217 219 226 223 210 195 203 206 204 211 210 203 198 185 180 169 162 161 153 135 125 109 114 132 134 136 130 122 112 107 107 111 106 89
39 29 22 10 312 254 242 223 216 202 219 224 217 224 222 211 203 196 203 204 197 195 188 182 175 168 161 177 163 146 161 152 150 144 148 138 129 123 114 105 103 96 92
25 15 9 3 346 309 255 249 62 38 43 62 233 231 224 219 215 210 202 197 193 195 193 189 185 179 170 186 179 146 158 191 154 166 167 156 155 143 130 122 110 100 90
14 5 9 6 6 7 319 246 188 214 224 216 219 209 215 218 218 214 214 206 196 196 195 192 190 192 177 181 191 191 217 138 174 166 179 165 164 156 145 138 131 122 115
11 4 360 3 10 3 359 330 273 250 258 274 229 219 218 210 209 209 210 211 208 200 199 191 189 198 195 186 188 168 154 144 142 150 169 163 140 172 159 158 150 143 134
355 356 356 359 358 356 347 341 317 284 269 254 240 243 232 217 208 213 211 210 207 204 197 191 190 197 197 198 194 189 185 170 169 157 139 170 153 165 176 170 170 160 150